Location: Hamburg
(53.5500°N, 10.0000°E)
Time: 21:49:11
(UTC+02:00)

ISS - Visible Passes

Search period start: 29 July 2016 00:00
Search period end: 08 August 2016 00:00
Orbit: 401 x 403 km, 51.6° (Epoch: 29 July)

Date Brightness Start Highest point End Pass type
(mag) Time Alt. Az. Time Alt. Az. Time Alt. Az.
29 Jul -3.4 00:23:07 10° WSW 00:26:21 61° S 00:27:59 26° ESE visible
29 Jul -1.4 01:59:27 10° W 02:00:32 19° W 02:00:32 19° W visible
29 Jul -3.3 23:30:14 10° WSW 23:33:25 53° S 23:36:26 11° E visible
30 Jul -2.9 01:06:29 10° W 01:09:01 45° WSW 01:09:01 45° WSW visible
30 Jul -3.0 22:37:24 10° SW 22:40:31 43° SSE 22:43:38 10° E visible
31 Jul -3.4 00:13:30 10° W 00:16:45 62° S 00:17:36 42° ESE visible
31 Jul -0.7 01:49:55 10° W 01:50:09 11° W 01:50:09 11° W visible
31 Jul -3.4 23:20:33 10° WSW 23:23:47 62° S 23:26:13 16° E visible
01 Aug -2.1 00:56:53 10° W 00:58:47 29° WSW 00:58:47 29° WSW visible
01 Aug -3.2 22:27:36 10° WSW 22:30:49 56° S 22:34:01 10° E visible
02 Aug -3.3 00:03:52 10° W 00:07:04 54° S 00:07:25 51° SSE visible
02 Aug -3.3 23:10:52 10° W 23:14:05 61° S 23:16:03 21° ESE visible
03 Aug -1.4 00:47:18 10° W 00:48:38 20° WSW 00:48:38 20° WSW visible
03 Aug -3.3 22:17:52 10° W 22:21:05 63° S 22:24:19 10° E visible
03 Aug -2.9 23:54:12 10° W 23:57:17 41° SSW 23:57:17 41° SSW visible
04 Aug -3.1 23:01:08 10° W 23:04:20 52° SSW 23:05:56 25° SE visible
05 Aug -0.9 00:37:49 10° W 00:38:30 14° WSW 00:38:30 14° WSW visible
05 Aug -3.2 22:08:05 10° W 22:11:19 60° S 22:14:33 10° ESE visible
05 Aug -2.2 23:44:33 10° W 23:47:10 28° SW 23:47:10 28° SW visible
06 Aug -2.7 22:51:25 10° W 22:54:29 38° SSW 22:55:50 25° SSE visible
07 Aug -2.9 21:58:18 10° W 22:01:29 49° SSW 22:04:31 11° ESE visible
07 Aug -1.4 23:35:05 10° W 23:37:06 18° SW 23:37:06 18° SW visible
